Regional Weather Roundup
Issued by NWS

Home | Current Version | Previous Version | Text Only | Print | Product List | Glossary On
Versions: 1 2 3 4 5 6 7 8 9 10 11 12 13 14 15 16 17 18 19 20 21 22 23 24 25 26 27 28 29 30 31 32 33 34 35 36 37 38 39 40 41 42 43 44 45 46 47 48 49 50
964
ASUS44 KJAN 282110
RWRMS

MISSISSIPPI HOURLY WEATHER ROUNDUP
NATIONAL WEATHER SERVICE JACKSON MS
300 PM CST SAT FEB 28 2015

NOTE: "FAIR: INDICATES FEW OR NO CLOUDS BELOW 12,000 FEET WITH NO
SIGNIFICANT WEATHER AND/OR OBSTRUCTIONS TO VISIBILITY.

MSZ001>002-007>008-010>013-018>021-025>028-034>036-282200-
NORTHWEST MISSISSIPPI

CITY           SKY/WX    TMP DP  RH WIND       PRES   REMARKS
CLARKSDALE     FAIR      41  32  70 N10       30.42F
CLEVELAND      MOCLDY    47  35  61 N6        30.40S
GREENWOOD        N/A    N/A N/A N/A MISG      30.37F
GREENVILLE     CLOUDY    48  34  58 NE7       30.38F
OLIVE BRANCH   PTSUNNY   45  23  42 CALM      30.43S
OXFORD         FAIR      52  27  37 E6        30.41F
TUNICA         CLEAR     43  28  56 N8        30.44S
$$

MSZ003>006-009-014>017-022>024-029>033-037>039-282200-
NORTHEAST MISSISSIPPI

CITY           SKY/WX    TMP DP  RH WIND       PRES   REMARKS
COLUMBUS AFB   CLOUDY    57  32  39 NW7       30.38F
CORINTH        FAIR      54  25  32 VRB5      30.41R
GOLDN TRIANGLE PTSUNNY   55  34  44 N5        30.37F
STARKVILLE     MOCLDY    55  34  44 SE5       30.38S
TUPELO         CLOUDY    52  27  38 SE6       30.41F
$$

MSZ040-058-282200-
CENTRAL MISSISSIPPI

CITY           SKY/WX    TMP DP  RH WIND       PRES   REMARKS
JACKSON INTL   MOSUNNY   65  29  25 S6        30.32F
JACKSON HAWKNS PTSUNNY   63  30  28 SE8       30.32F
MERIDIAN KEY   SUNNY     64  27  24 E8        30.34F
MERIDIAN NAS   SUNNY     65  28  24 E12       30.36S
VICKSBURG      CLOUDY    60  32  34 NE6       30.33F
$$

MSZ059>079-282200-
SOUTH MISSISSIPPI

CITY           SKY/WX    TMP DP  RH WIND       PRES   REMARKS
BROOKHAVEN     FAIR      66  32  28 E6        30.31F
HATTIESBURG    SUNNY     66  31  27 VRB6      30.32F
MCCOMB         SUNNY     67  31  26 SE12      30.30S
NATCHEZ        PTSUNNY   64  34  32 SE7       30.31S
PINE BELT      SUNNY     66  34  30 SE10      30.33F
$$

MSZ080>082-282200-
COASTAL MISSISSIPPI

CITY           SKY/WX    TMP DP  RH WIND       PRES   REMARKS
BAY ST LOUIS   SUNNY     63  45  51 SE14G200  30.32F
BILOXI         CLOUDY    62  44  53 SE10      30.32F
PASCAGOULA     SUNNY     60  45  57 S12       30.33S
GULFPORT       MOSUNNY   60  49  66 SE13      30.32F
$$



USA.gov is the U.S. government's official web portal to all federal, state and local government web resources and services.